Weather History for Keahole Point, HI

Change the Weather History Date:

Tuesday, April 8, 2014

  Actual Average Record
Temperature  
Mean Temperature 81 °F -  
Max Temperature 89 °F 80 °F 89 °F (2014)
Min Temperature 73 °F 69 °F 66 °F (1985)
Cooling Degree Days 16    
Growing Degree Days 31 (Base 50)    
Moisture  
Dew Point 56 °F    
Average Humidity 45    
Maximum Humidity 60    
Minimum Humidity 29    
Precipitation  
Precipitation 0.00 in - - ()
Sea Level Pressure  
Sea Level Pressure 29.99 in    
Wind  
Wind Speed 17 mph (NNE)    
Max Wind Speed 29 mph    
Max Gust Speed 44 mph    
Visibility 10 miles    
Events      
Averages and records for this station are not official NWS values.
T = Trace of Precipitation, MM = Missing Value Source: NWS Daily Summary

Daily Weather History Graph

Daily Weather History Graph

Search for Another Location

Airport:

Trip Planner

Search our weather history database for the weather conditions in past years. The results will help you decide how hot, cold, wet, or windy it might be!

Date:

Astronomy

Apr. 08, 2014 Rise Set
Actual Time 6:11 AM HST 6:40 PM HST
Civil Twilight 5:49 AM HST 7:02 PM HST
Nautical Twilight 5:23 AM HST 7:28 PM HST
Astronomical Twilight 4:57 AM HST 7:54 PM HST
Moon 1:27 PM HST (4/8) 1:46 AM HST (4/8)
Length of Visible Light 13h 12m
Length of Day
12h 28m
Waxing Gibbous, 65% of the Moon is Illuminated
Apr 8
Waxing Gibbous
Apr 14
Full
Apr 21
Last Quarter
Apr 28
New
May 6
First Quarter

Hourly Weather History & Observations

Time (HST) Temp. Heat Index Dew Point Humidity Pressure Visibility Wind Dir Wind Speed Gust Speed Precip Events Conditions
12:53 AM 75.0 °F - 60.1 °F 60% - 10.0 mi NE 11.5 mph 21.9 mph N/A   Partly Cloudy
1:53 AM 75.0 °F - 59.0 °F 57% - 10.0 mi NE 13.8 mph 20.7 mph N/A   Scattered Clouds
2:53 AM 73.9 °F - 59.0 °F 59% - 10.0 mi NE 8.1 mph - N/A   Clear
3:53 AM 73.0 °F - 57.9 °F 59% - 10.0 mi NNE 9.2 mph - N/A   Clear
4:53 AM 73.0 °F - 57.0 °F 57% - 10.0 mi NNE 13.8 mph - N/A   Clear
5:53 AM 73.0 °F - 57.9 °F 59% 30.03 in 10.0 mi ENE 9.2 mph 21.9 mph N/A   Clear
6:53 AM 75.0 °F - 57.9 °F 55% 30.04 in 10.0 mi NNE 21.9 mph 35.7 mph N/A   Clear
6:59 AM 75.2 °F - 57.2 °F 53% 29.98 in 10.0 mi NNE 24.2 mph - N/A   Clear
7:53 AM 79.0 °F - 57.9 °F 48% 30.04 in 10.0 mi NNE 26.5 mph 32.2 mph N/A   Clear
8:53 AM 80.1 °F 80.6 °F 57.9 °F 47% 30.04 in 10.0 mi NNE 26.5 mph 39.1 mph N/A   Clear
9:53 AM 82.9 °F 82.4 °F 57.0 °F 41% 30.06 in 10.0 mi NNE 26.5 mph 43.7 mph N/A   Clear
10:53 AM 84.9 °F 83.7 °F 55.9 °F 37% 30.04 in 10.0 mi NNE 28.8 mph 36.8 mph N/A   Clear
11:53 AM 86.0 °F 84.9 °F 57.0 °F 37% 30.04 in 10.0 mi North 21.9 mph 34.5 mph N/A   Partly Cloudy
12:35 PM 87.8 °F 86.1 °F 55.4 °F 33% 29.97 in 10.0 mi NNE 25.3 mph 38.0 mph N/A   Scattered Clouds
12:53 PM 88.0 °F 86.1 °F 55.0 °F 32% 30.01 in 10.0 mi North 25.3 mph 35.7 mph N/A   Partly Cloudy
1:53 PM 87.1 °F 85.3 °F 55.0 °F 33% 30.01 in 10.0 mi North 28.8 mph 39.1 mph N/A   Scattered Clouds
2:53 PM 89.1 °F 86.7 °F 53.1 °F 29% 29.91 in 10.0 mi NNE 16.1 mph 25.3 mph N/A   Scattered Clouds
3:53 PM 86.0 °F 84.2 °F 54.0 °F 33% 29.91 in 10.0 mi NNE 20.7 mph 28.8 mph N/A   Mostly Cloudy
4:53 PM 84.9 °F 83.6 °F 55.0 °F 36% 29.92 in 10.0 mi NNE 20.7 mph 29.9 mph N/A   Clear
5:53 PM 82.0 °F 81.3 °F 54.0 °F 38% 29.94 in 10.0 mi NNE 20.7 mph - N/A   Clear
6:53 PM 79.0 °F - 52.0 °F 39% 29.95 in 10.0 mi NNE 18.4 mph - N/A   Partly Cloudy
7:53 PM 77.0 °F - 52.0 °F 42% 29.97 in 10.0 mi NNE 16.1 mph 25.3 mph N/A   Partly Cloudy
8:53 PM 75.9 °F - 52.0 °F 43% 29.99 in 10.0 mi NNE 13.8 mph - N/A   Scattered Clouds
9:53 PM 73.9 °F - 52.0 °F 46% 30.00 in 10.0 mi NNE 13.8 mph - N/A   Mostly Cloudy
10:53 PM 73.9 °F - 53.1 °F 48% 30.01 in 10.0 mi NNE 15.0 mph 21.9 mph N/A   Overcast
11:53 PM 75.0 °F - 54.0 °F 48% 30.00 in 10.0 mi North 3.5 mph - N/A   Mostly Cloudy